Weather History for Nuiqsut, AK

Change the Weather History Date:

Saturday, February 8, 2014

  Actual Average (PAKU) Record (PAKU)
Temperature  
Mean Temperature 0 °F -  
Max Temperature 6 °F -12 °F 26 °F (1989)
Min Temperature -6 °F -19 °F -49 °F (2004)
Degree Days  
Heating Degree Days 65    
Moisture  
Dew Point -11 °F    
Average Humidity 55    
Maximum Humidity 80    
Minimum Humidity 46    
Precipitation  
Precipitation 0.00 in - - ()
Sea Level Pressure  
Sea Level Pressure 30.92 in    
Wind  
Wind Speed 7 mph (WSW)    
Max Wind Speed 9 mph    
Max Gust Speed -    
Visibility 10 miles    
Events      
Averages and records for this station are not official NWS values.
T = Trace of Precipitation, MM = Missing Value Source: NWS Daily Summary

Daily Weather History Graph

Daily Weather History Graph

Search for Another Location

Airport:

Trip Planner

Search our weather history database for the weather conditions in past years. The results will help you decide how hot, cold, wet, or windy it might be!

Date:

Astronomy

Feb. 08, 2014 Rise Set
Actual Time 10:13 AM AKST 4:24 PM AKST
Civil Twilight 8:56 AM AKST 5:41 PM AKST
Nautical Twilight 7:41 AM AKST 6:56 PM AKST
Astronomical Twilight 6:30 AM AKST 8:07 PM AKST
Moon 9:43 AM AKST (2/8) 7:14 AM AKST (2/8)
Length of Visible Light 8h 44m
Length of Day
6h 11m
Waxing Gibbous, 70% of the Moon is Illuminated
Feb 8
Waxing Gibbous
Feb 14
Full
Feb 22
Last Quarter
Feb 28
New
Mar 8
First Quarter

Hourly Weather History & Observations

Time (AKST) Temp. Windchill Dew Point Humidity Pressure Visibility Wind Dir Wind Speed Gust Speed Precip Events Conditions
12:15 AM -0.0 °F -13.0 °F -11.0 °F 60% 31.00 in 10.0 mi West 6.9 mph - 0.00 in   Overcast
12:53 AM -0.0 °F -13.0 °F -11.9 °F 57% 31.00 in 10.0 mi WNW 6.9 mph - 0.00 in   Overcast
1:14 AM -0.9 °F -14.1 °F -11.9 °F 60% 31.00 in 10.0 mi WNW 6.9 mph - N/A   Overcast
1:23 AM -2.0 °F -15.4 °F -11.9 °F 63% 31.00 in 10.0 mi West 6.9 mph - N/A   Overcast
1:53 AM -4.0 °F -19.0 °F -11.9 °F 69% 31.01 in 10.0 mi West 8.1 mph - N/A   Overcast
2:17 AM -6.0 °F -21.5 °F -11.9 °F 75% 31.00 in 10.0 mi West 8.1 mph - N/A   Overcast
2:53 AM -5.1 °F -17.6 °F -11.9 °F 72% 31.00 in 10.0 mi West 5.8 mph - N/A   Overcast
3:53 AM -2.9 °F -16.5 °F -11.0 °F 68% 31.00 in 10.0 mi WNW 6.9 mph - N/A   Overcast
4:53 AM 3.0 °F -11.5 °F -11.0 °F 52% 30.98 in 10.0 mi WSW 9.2 mph - N/A   Overcast
5:53 AM 1.9 °F -12.9 °F -11.0 °F 55% 30.98 in 10.0 mi WSW 9.2 mph - N/A   Overcast
6:53 AM 1.0 °F -12.9 °F -11.9 °F 55% 30.96 in 8.0 mi WSW 8.1 mph - N/A   Overcast
7:13 AM 1.9 °F -12.9 °F -11.9 °F 52% 30.96 in 9.0 mi WSW 9.2 mph - N/A   Overcast
7:53 AM -0.0 °F -13.0 °F -9.9 °F 63% 30.97 in 9.0 mi West 6.9 mph - N/A   Overcast
8:05 AM 1.0 °F -12.9 °F -9.9 °F 60% 30.96 in 10.0 mi West 8.1 mph - N/A   Overcast
8:53 AM -5.1 °F -19.1 °F -9.9 °F 80% 30.96 in 10.0 mi West 6.9 mph - N/A   Overcast
9:53 AM 3.0 °F -8.0 °F -9.9 °F 55% 30.96 in 10.0 mi WSW 5.8 mph - N/A   Overcast
10:00 AM 1.0 °F -8.7 °F -9.9 °F 60% 30.96 in 10.0 mi West 4.6 mph - N/A   Overcast
10:10 AM 5.0 °F -5.6 °F -11.0 °F 48% 30.95 in 10.0 mi WSW 5.8 mph - N/A   Overcast
10:53 AM 6.1 °F -4.3 °F -9.9 °F 48% 30.94 in 10.0 mi WSW 5.8 mph - 0.00 in   Overcast
11:33 AM 5.0 °F -2.1 °F -9.9 °F 50% 30.93 in 10.0 mi SW 3.5 mph - 0.00 in   Overcast
11:53 AM 6.1 °F -4.3 °F -9.9 °F 48% 30.93 in 10.0 mi SW 5.8 mph - 0.00 in   Overcast
12:20 PM 6.1 °F -5.6 °F -9.9 °F 48% 30.92 in 10.0 mi SSW 6.9 mph - 0.00 in   Overcast
12:48 PM 6.8 °F -4.8 °F -9.4 °F 48% 30.92 in 10.0 mi SSW 6.9 mph - 0.00 in   Overcast
12:53 PM 6.1 °F -5.6 °F -9.0 °F 50% 30.92 in 10.0 mi SSW 6.9 mph - 0.00 in   Overcast
1:53 PM 6.1 °F -4.3 °F -9.0 °F 50% 30.90 in 10.0 mi SW 5.8 mph - 0.00 in   Overcast
2:10 PM 6.1 °F -2.8 °F -9.0 °F 50% 30.89 in 10.0 mi SW 4.6 mph - N/A   Overcast
2:53 PM 1.9 °F -5.6 °F -9.9 °F 58% 30.89 in 10.0 mi SSW 3.5 mph - 0.00 in   Overcast
3:53 PM 3.9 °F -6.9 °F -11.9 °F 48% 30.88 in 10.0 mi SW 5.8 mph - N/A   Mostly Cloudy
4:07 PM 3.9 °F -8.2 °F -11.9 °F 48% 30.88 in 10.0 mi SSW 6.9 mph - N/A   Overcast
4:37 PM 1.9 °F -10.6 °F -11.0 °F 55% 30.87 in 1.2 mi SSW 6.9 mph - 0.00 in   Overcast
4:53 PM 1.9 °F -9.2 °F -11.0 °F 55% 30.87 in 9.0 mi SSW 5.8 mph - 0.00 in   Overcast
5:05 PM 3.9 °F -6.9 °F -11.0 °F 50% 30.86 in 10.0 mi SSW 5.8 mph - 0.00 in   Overcast
5:53 PM 5.0 °F -6.9 °F -11.9 °F 46% 30.86 in 10.0 mi SSW 6.9 mph - 0.00 in   Overcast
6:53 PM 5.0 °F -8.1 °F -9.9 °F 50% 30.85 in 10.0 mi SSW 8.1 mph - 0.00 in   Overcast
7:53 PM 6.1 °F -6.8 °F -9.0 °F 50% 30.83 in 9.0 mi SSW 8.1 mph - N/A   Overcast
8:53 PM 6.1 °F -6.8 °F -9.0 °F 50% 30.81 in 9.0 mi SSW 8.1 mph - N/A   Overcast
9:53 PM 6.1 °F -5.6 °F -9.0 °F 50% 30.80 in 9.0 mi SW 6.9 mph - N/A   Overcast
10:53 PM 5.0 °F -8.1 °F -9.0 °F 52% 30.77 in 10.0 mi SSW 8.1 mph - N/A   Overcast
11:53 PM 3.9 °F -9.4 °F -11.0 °F 50% 30.75 in 10.0 mi SW 8.1 mph - N/A   Overcast